Weather History for St. Louis, MO

Change the Weather History Date:

Wednesday, November 14, 2012

  Actual Average Record
Temperature  
Mean Temperature 41 °F 48 °F  
Max Temperature 49 °F 56 °F 81 °F (1971)
Min Temperature 32 °F 39 °F 13 °F (1940)
Degree Days  
Heating Degree Days 24 17  
Month to date heating degree days 252 205  
Since 1 July heating degree days 565 481  
Cooling Degree Days 0 0  
Month to date cooling degree days 4 0  
Year to date cooling degree days 2209 1642  
Moisture  
Dew Point 25 °F    
Average Humidity 55    
Maximum Humidity 75    
Minimum Humidity 34    
Precipitation  
Precipitation 0.00 in 0.14 in 1.86 in (1993)
Month to date precipitation 1.30 1.76  
Year to date precipitation 30.20 35.97  
Snow  
Snow 0.00 in 0.10 in 2.00 in (1906)
Month to date snowfall 0.0 0.2  
Since 1 July snowfall 0.0 0.2  
Since 1 September snowfall 0.0 0.2  
Snow Depth 0.00 in    
Sea Level Pressure  
Sea Level Pressure 30.45 in    
Wind  
Wind Speed 5 mph (ESE)    
Max Wind Speed 10 mph    
Max Gust Speed 12 mph    
Visibility 10 miles    
Events      
T = Trace of Precipitation, MM = Missing Value Source: NWS Daily Summary

Daily Weather History Graph

Daily Weather History Graph

Search for Another Location

Airport:

Trip Planner

Search our weather history database for the weather conditions in past years. The results will help you decide how hot, cold, wet, or windy it might be!

Date:

Astronomy

Nov. 14, 2012 Rise Set
Actual Time 6:43 AM CST 4:48 PM CST
Civil Twilight 6:14 AM CST 5:16 PM CST
Nautical Twilight 5:42 AM CST 5:48 PM CST
Astronomical Twilight 5:11 AM CST 6:20 PM CST
Moon 7:32 AM CST (11/14) 5:37 PM CST (11/14)
Length of Visible Light 11h 01m
Length of Day
10h 05m
New Moon, 1% of the Moon is Illuminated
Nov 14
New Moon
Nov 20
First Quarter
Nov 28
Full
Dec 6
Last Quarter
Dec 13
New

Hourly Weather History & Observations

Time (CST) Temp. Windchill Dew Point Humidity Pressure Visibility Wind Dir Wind Speed Gust Speed Precip Events Conditions
12:51 AM 35.1 °F 31.0 °F 25.0 °F 67% 30.48 in 10.0 mi ESE 4.6 mph - N/A   Mostly Cloudy
1:51 AM 35.1 °F 31.0 °F 25.0 °F 67% 30.49 in 10.0 mi ESE 4.6 mph - N/A   Mostly Cloudy
2:51 AM 34.0 °F - 25.0 °F 70% 30.50 in 10.0 mi Calm Calm - N/A   Mostly Cloudy
3:51 AM 34.0 °F 28.8 °F 26.1 °F 73% 30.49 in 10.0 mi ESE 5.8 mph - N/A   Overcast
4:51 AM 35.1 °F - 27.0 °F 72% 30.49 in 10.0 mi Calm Calm - N/A   Overcast
5:51 AM 35.1 °F 32.2 °F 27.0 °F 72% 30.51 in 10.0 mi East 3.5 mph - N/A   Overcast
6:51 AM 35.1 °F 30.1 °F 26.1 °F 70% 30.51 in 10.0 mi East 5.8 mph - N/A   Mostly Cloudy
7:51 AM 35.1 °F 31.0 °F 25.0 °F 67% 30.52 in 10.0 mi ESE 4.6 mph - N/A   Mostly Cloudy
8:51 AM 39.0 °F - 26.1 °F 60% 30.53 in 10.0 mi Calm Calm - N/A   Mostly Cloudy
9:51 AM 43.0 °F 38.2 °F 25.0 °F 49% 30.51 in 10.0 mi SE 8.1 mph - N/A   Mostly Cloudy
10:51 AM 45.0 °F 41.8 °F 24.1 °F 44% 30.51 in 10.0 mi ESE 5.8 mph - N/A   Scattered Clouds
11:51 AM 46.9 °F - 24.1 °F 41% 30.48 in 10.0 mi Calm Calm - N/A   Scattered Clouds
12:51 PM 48.0 °F - 21.0 °F 34% 30.45 in 10.0 mi SE 6.9 mph - N/A   Scattered Clouds
1:51 PM 48.9 °F - 21.9 °F 35% 30.43 in 10.0 mi ESE 6.9 mph - N/A   Scattered Clouds
2:51 PM 48.9 °F - 23.0 °F 36% 30.41 in 10.0 mi SE 8.1 mph - N/A   Scattered Clouds
3:51 PM 48.2 °F - 23.0 °F 37% 30.38 in 10.0 mi ESE 6.9 mph - N/A   Partly Cloudy
4:51 PM 43.0 °F 39.5 °F 24.1 °F 47% 30.40 in 10.0 mi East 5.8 mph - N/A   Partly Cloudy
5:51 PM 41.0 °F 37.1 °F 25.0 °F 53% 30.40 in 10.0 mi East 5.8 mph - N/A   Partly Cloudy
6:51 PM 39.0 °F 35.7 °F 27.0 °F 62% 30.41 in 10.0 mi ESE 4.6 mph - N/A   Clear
7:51 PM 37.9 °F 33.5 °F 26.1 °F 62% 30.41 in 10.0 mi ESE 5.8 mph - N/A   Clear
8:51 PM 35.1 °F 28.6 °F 26.1 °F 70% 30.40 in 10.0 mi ESE 8.1 mph - N/A   Clear
9:51 PM 35.1 °F 32.2 °F 26.1 °F 70% 30.40 in 10.0 mi ESE 3.5 mph - N/A   Clear
10:51 PM 34.0 °F 28.0 °F 26.1 °F 73% 30.38 in 10.0 mi ESE 6.9 mph - N/A   Clear
11:51 PM 32.0 °F 28.7 °F 24.8 °F 75% 30.36 in 10.0 mi East 3.5 mph - N/A   Partly Cloudy